Location: B�di�
(14.6834°N, 3.1047°W)
Time: 08:06:34
(UTC+00:00)

IRS-1A Rocket - Visible Passes

Search period start: 06 June 2020 00:00
Search period end: 16 June 2020 00:00
Orbit: 851 x 931 km, 99.2° (Epoch: 05 June)

Date Brightness Start Highest point End Pass type
(mag) Time Alt. Az. Time Alt. Az. Time Alt. Az.
06 Jun 4.7 19:42:48 18° SE 19:46:45 44° ENE 19:52:08 10° N visible
06 Jun 6.7 21:25:40 12° SW 21:28:04 15° W 21:31:14 10° WNW visible
07 Jun 4.7 19:42:48 18° SE 19:46:46 44° ENE 19:52:08 10° N visible
07 Jun 6.7 21:25:40 12° SW 21:28:05 15° W 21:31:14 10° WNW visible
08 Jun 4.7 19:42:48 18° SE 19:46:46 44° ENE 19:52:07 10° N visible
08 Jun 6.7 21:25:39 12° SW 21:28:05 15° W 21:31:14 10° WNW visible
09 Jun 4.7 19:42:48 18° SE 19:46:46 43° ENE 19:52:07 10° N visible
09 Jun 6.7 21:25:39 12° SW 21:28:05 15° W 21:31:14 10° WNW visible
10 Jun 4.7 19:42:47 18° SE 19:46:46 43° ENE 19:52:06 10° N visible
10 Jun 6.7 21:25:39 12° SW 21:28:05 15° W 21:31:14 10° WNW visible
11 Jun 4.7 19:42:47 18° SE 19:46:47 43° ENE 19:52:06 10° N visible
11 Jun 6.7 21:25:38 12° SW 21:28:06 15° W 21:31:14 10° WNW visible
12 Jun 4.7 19:42:47 18° SE 19:46:47 43° ENE 19:52:05 10° N visible
12 Jun 6.7 21:25:38 12° SW 21:28:06 15° W 21:31:14 10° WNW visible
13 Jun 4.7 19:42:46 17° SE 19:46:47 43° ENE 19:52:04 10° N visible
13 Jun 6.7 21:25:38 12° SW 21:28:06 15° W 21:31:13 10° WNW visible
14 Jun 4.7 19:42:46 17° SE 19:46:47 43° ENE 19:52:03 10° N visible
14 Jun 6.7 21:25:37 12° SW 21:28:06 15° W 21:31:13 10° WNW visible
15 Jun 4.7 19:42:46 17° SE 19:46:46 42° ENE 19:52:03 10° N visible
15 Jun 6.7 21:25:37 12° SW 21:28:05 15° W 21:31:13 10° WNW visible
